Aeroporto :







RITROVATECI SU...

 
LOGIN :

Iscrizione | Disclaimer

   EN    FR    IT 

 









Sommario :    VFR   VFR Marginale   IFR   IFR Intensivo   IFR Molto Intensivo
Visibilità : 
Base nubi : 
>= 8 km
>= 3000ft
5 / 8 km
1000 / 3000 ft
1500m / 5 km
500 / 1000 ft
800 / 1500m
200 / 500 ft
< 800m
< 200 ft
Simboli :   Temporali  Nebbia  Neve Forte  Precipitazioni Forti  Vento > 20 kt






- Altitudine del aeroporto : 10 ft
- Codice IATA : ORG


SMZO - Zorg en Hoop

ULTIMO METAR :
  • 260000Z 03002KT 9999 FEW010 27/24 Q1010 NOSIG

METARs OBSOLETI :
  • 252300Z 08002KT 9999 SCT010 27/24 Q1009 NOSIG

TAF TAF SMZO
Valido dal 26 a 00 ore il 27 a 00 ore UTC


252200Z 2600/2624 09004KT 9999 SCT025 TX32/2617Z TN24/2608Z
FM261200 09006KT 9999 SCT020
TEMPO 2616/2621 4000 SHRA FEW015CB SCT020
PROB30
TEMPO 2618/2620 VRB06G16KT TS
FIR SMPM / Sudamerica



MetMap, La meteo Aeronautica in un colpo d'occhio ! - Copyright ORBIFLY Dicembre 2007 - Disclaimer

ORBIFLY MET'MAP TEAM :

Programmazione e sviluppo : Alexandra Zaïnal
Concezione : Baudouin d'Aumeries
Aiuto per la programmazione : Marc-Olivier Méhu
Supporto tecnico e logistico : Manuel Goepfert
Aiuto per la traduzione : Arnaldo La Scala

Contatto : metmap@orbifly.com




FONTI E CREDITI :

   NOAA